Time,TemperatureF,DewpointF,PressureIn,WindDirection,WindDirectionDegrees,WindSpeedMPH,WindSpeedGustMPH,Humidity,HourlyPrecipIn,Conditions,Clouds,dailyrainin,SoftwareType,DateUTC
2013-01-06 00:01:00,34.7,21.5,29.84,WSW,248,8.1,13.2,58,0.00,,---,0.00,VWS V12.08,2013-01-06 06:01:00,
2013-01-06 00:16:00,34.5,16.9,29.84,SW,234,11.9,15.0,48,0.00,,---,0.00,VWS V12.08,2013-01-06 06:16:00,
2013-01-06 00:31:00,33.8,15.7,29.84,WSW,251,13.2,17.4,47,0.00,,---,0.00,VWS V12.08,2013-01-06 06:31:00,
2013-01-06 00:46:00,33.1,15.5,29.84,West,260,15.4,15.4,48,0.00,,---,0.00,VWS V12.08,2013-01-06 06:46:00,
2013-01-06 01:01:00,32.0,15.9,29.84,WSW,256,8.7,15.4,51,0.00,,---,0.00,VWS V12.08,2013-01-06 07:01:00,
2013-01-06 01:16:00,31.5,16.3,29.84,WNW,286,10.1,12.3,53,0.00,,---,0.00,VWS V12.08,2013-01-06 07:16:00,
2013-01-06 01:31:00,31.3,16.6,29.87,WSW,246,10.5,11.0,54,0.00,,---,0.00,VWS V12.08,2013-01-06 07:31:00,
2013-01-06 01:46:00,31.3,16.6,29.87,West,278,5.8,12.3,54,0.00,,---,0.00,VWS V12.08,2013-01-06 07:46:00,
2013-01-06 02:01:00,31.3,15.3,29.87,WNW,287,7.6,8.7,51,0.00,,---,0.00,VWS V12.08,2013-01-06 08:01:00,
2013-01-06 02:16:00,30.6,13.7,29.87,NNW,334,10.5,15.0,49,0.00,,---,0.00,VWS V12.08,2013-01-06 08:16:00,
2013-01-06 02:31:00,29.7,12.9,29.87,NNW,333,8.1,12.8,49,0.00,,---,0.00,VWS V12.08,2013-01-06 08:31:00,
2013-01-06 02:46:00,29.3,13.0,29.87,WNW,300,6.3,15.0,50,0.00,,---,0.00,VWS V12.08,2013-01-06 08:46:00,
2013-01-06 03:01:00,28.6,11.9,29.90,NW,313,8.7,16.3,49,0.00,,---,0.00,VWS V12.08,2013-01-06 09:01:00,
2013-01-06 03:16:00,27.7,11.5,29.90,WNW,302,12.3,14.5,50,0.00,,---,0.00,VWS V12.08,2013-01-06 09:16:00,
2013-01-06 03:31:00,27.0,10.8,29.90,NNW,340,10.1,12.3,50,0.00,,---,0.00,VWS V12.08,2013-01-06 09:31:00,
2013-01-06 03:46:00,26.4,10.3,29.90,WNW,292,8.1,15.0,50,0.00,,---,0.00,VWS V12.08,2013-01-06 09:46:00,
2013-01-06 04:01:00,25.7,9.6,29.90,WNW,292,11.0,15.0,50,0.00,,---,0.00,VWS V12.08,2013-01-06 10:01:00,
2013-01-06 04:16:00,25.0,8.5,29.93,WNW,292,12.3,17.9,49,0.00,,---,0.00,VWS V12.08,2013-01-06 10:16:00,
2013-01-06 04:31:00,23.9,7.5,29.93,WNW,298,8.3,17.4,49,0.00,,---,0.00,VWS V12.08,2013-01-06 10:31:00,
2013-01-06 04:46:00,22.8,6.1,29.93,WNW,295,12.8,17.4,48,0.00,,---,0.00,VWS V12.08,2013-01-06 10:46:00,
2013-01-06 05:01:00,22.5,6.2,29.93,WNW,293,12.8,15.0,49,0.00,,---,0.00,VWS V12.08,2013-01-06 11:01:00,
2013-01-06 05:16:00,22.5,6.6,29.93,WNW,289,5.8,14.5,50,0.00,,---,0.00,VWS V12.08,2013-01-06 11:16:00,
2013-01-06 05:31:00,22.6,6.8,29.93,WNW,293,8.7,11.9,50,0.00,,---,0.00,VWS V12.08,2013-01-06 11:31:00,
2013-01-06 05:46:00,22.8,7.0,29.96,WNW,301,10.1,11.0,50,0.00,,---,0.00,VWS V12.08,2013-01-06 11:46:00,
2013-01-06 06:02:00,22.8,7.0,29.96,West,279,6.3,12.8,50,0.00,,---,0.00,VWS V12.08,2013-01-06 12:02:00,
2013-01-06 06:16:00,23.0,7.6,29.96,NW,314,9.2,12.8,51,0.00,,---,0.00,VWS V12.08,2013-01-06 12:16:00,
2013-01-06 06:32:00,23.0,7.6,29.96,West,266,8.1,12.8,51,0.00,,---,0.00,VWS V12.08,2013-01-06 12:32:00,
2013-01-06 06:47:00,23.0,8.0,29.96,NW,311,10.1,11.0,52,0.00,,---,0.00,VWS V12.08,2013-01-06 12:47:00,
2013-01-06 07:02:00,23.0,8.4,29.99,WNW,292,11.4,13.2,53,0.00,,---,0.00,VWS V12.08,2013-01-06 13:02:00,
2013-01-06 07:17:00,23.0,8.4,29.99,NW,305,8.3,12.8,53,0.00,,---,0.00,VWS V12.08,2013-01-06 13:17:00,
2013-01-06 07:32:00,23.0,8.4,29.99,NNW,332,8.7,12.8,53,0.00,,---,0.00,VWS V12.08,2013-01-06 13:32:00,
2013-01-06 07:47:00,23.0,8.9,30.02,WNW,295,7.6,16.8,54,0.00,,---,0.00,VWS V12.08,2013-01-06 13:47:00,
2013-01-06 08:02:00,23.4,9.2,30.02,NW,321,8.1,15.9,54,0.00,,---,0.00,VWS V12.08,2013-01-06 14:02:00,
2013-01-06 08:17:00,23.7,9.5,30.02,NNW,346,8.7,17.4,54,0.00,,---,0.00,VWS V12.08,2013-01-06 14:17:00,
2013-01-06 08:32:00,24.4,10.2,30.02,NNW,330,11.0,15.4,54,0.00,,---,0.00,VWS V12.08,2013-01-06 14:32:00,
2013-01-06 08:47:00,24.6,9.9,30.05,WNW,300,11.0,16.8,53,0.00,,---,0.00,VWS V12.08,2013-01-06 14:47:00,
2013-01-06 09:02:00,25.0,9.4,30.05,NW,314,15.0,17.4,51,0.00,,---,0.00,VWS V12.08,2013-01-06 15:02:00,
2013-01-06 09:17:00,26.8,9.7,30.05,NNW,337,13.2,21.0,48,0.00,,---,0.00,VWS V12.08,2013-01-06 15:17:00,
2013-01-06 09:32:00,27.1,9.6,30.05,NW,317,6.3,16.8,47,0.00,,---,0.00,VWS V12.08,2013-01-06 15:32:00,
2013-01-06 09:47:00,27.5,9.9,30.08,NW,315,15.0,17.4,47,0.00,,---,0.00,VWS V12.08,2013-01-06 15:47:00,
2013-01-06 10:02:00,28.6,10.9,30.08,NW,311,10.5,20.6,47,0.00,,---,0.00,VWS V12.08,2013-01-06 16:02:00,
2013-01-06 10:17:00,29.5,9.8,30.08,NNW,344,13.2,17.4,43,0.00,,---,0.00,VWS V12.08,2013-01-06 16:17:00,
2013-01-06 10:32:00,30.6,9.1,30.08,NNW,339,7.2,15.4,40,0.00,,---,0.00,VWS V12.08,2013-01-06 16:32:00,
2013-01-06 10:47:00,31.3,9.2,30.11,NNW,329,9.6,15.4,39,0.00,,---,0.00,VWS V12.08,2013-01-06 16:47:00,
2013-01-06 11:02:00,31.1,9.1,30.11,WNW,303,10.1,13.2,39,0.00,,---,0.00,VWS V12.08,2013-01-06 17:02:00,
2013-01-06 11:17:00,32.2,10.0,30.11,WNW,291,12.8,16.8,39,0.00,,---,0.00,VWS V12.08,2013-01-06 17:17:00,
2013-01-06 11:32:00,32.4,10.2,30.11,NW,324,8.7,17.9,39,0.00,,---,0.00,VWS V12.08,2013-01-06 17:32:00,
2013-01-06 11:46:00,32.5,10.4,30.11,WNW,301,10.5,17.0,39,0.00,,---,0.00,VWS V12.08,2013-01-06 17:46:00,
2013-01-06 12:01:00,32.7,10.5,30.11,WNW,283,10.1,19.7,39,0.00,,---,0.00,VWS V12.08,2013-01-06 18:01:00,
2013-01-06 12:16:00,32.5,9.8,30.11,NNW,330,11.0,15.4,38,0.00,,---,0.00,VWS V12.08,2013-01-06 18:16:00,
2013-01-06 12:31:00,33.3,10.4,30.11,WNW,291,6.3,17.4,38,0.00,,---,0.00,VWS V12.08,2013-01-06 18:31:00,
2013-01-06 12:46:00,33.6,10.1,30.11,North,357,8.7,15.0,37,0.00,,---,0.00,VWS V12.08,2013-01-06 18:46:00,
2013-01-06 13:01:00,32.9,10.1,30.11,WNW,302,11.9,15.4,38,0.00,,---,0.00,VWS V12.08,2013-01-06 19:01:00,
2013-01-06 13:16:00,32.7,9.9,30.11,West,266,11.0,15.0,38,0.00,,---,0.00,VWS V12.08,2013-01-06 19:16:00,
2013-01-06 13:31:00,33.1,9.7,30.11,West,264,5.8,12.8,37,0.00,,---,0.00,VWS V12.08,2013-01-06 19:31:00,
2013-01-06 13:46:00,33.4,10.6,30.14,West,262,11.0,13.2,38,0.00,,---,0.00,VWS V12.08,2013-01-06 19:46:00,
2013-01-06 14:01:00,32.5,9.8,30.14,WSW,251,8.7,11.0,38,0.00,,---,0.00,VWS V12.08,2013-01-06 20:01:00,
2013-01-06 14:16:00,32.7,9.3,30.14,West,281,7.6,11.9,37,0.00,,---,0.00,VWS V12.08,2013-01-06 20:16:00,
2013-01-06 14:31:00,32.7,9.3,30.14,West,260,8.7,10.1,37,0.00,,---,0.00,VWS V12.08,2013-01-06 20:31:00,
2013-01-06 15:01:00,32.2,8.9,30.16,West,262,5.8,10.1,37,0.00,,---,0.00,VWS V12.08,2013-01-06 21:01:00,
2013-01-06 15:16:00,32.4,9.0,30.16,WSW,254,6.3,11.0,37,0.00,,---,0.00,VWS V12.08,2013-01-06 21:16:00,
2013-01-06 15:31:00,29.8,7.9,30.16,West,264,7.6,8.7,39,0.00,,---,0.00,VWS V12.08,2013-01-06 21:31:00,
2013-01-06 15:46:00,28.4,7.7,30.19,WSW,249,4.9,10.5,41,0.00,,---,0.00,VWS V12.08,2013-01-06 21:46:00,
2013-01-06 16:01:00,27.7,9.1,30.19,WSW,250,7.6,8.7,45,0.00,,---,0.00,VWS V12.08,2013-01-06 22:01:00,
2013-01-06 16:16:00,26.4,8.5,30.19,WSW,254,8.1,10.5,46,0.00,,---,0.00,VWS V12.08,2013-01-06 22:16:00,
2013-01-06 16:31:00,25.5,8.6,30.19,NW,311,5.4,9.6,48,0.00,,---,0.00,VWS V12.08,2013-01-06 22:31:00,
2013-01-06 16:46:00,24.6,8.2,30.19,West,263,4.0,8.7,49,0.00,,---,0.00,VWS V12.08,2013-01-06 22:46:00,
2013-01-06 17:01:00,24.4,8.5,30.19,WSW,249,5.8,9.6,50,0.00,,---,0.00,VWS V12.08,2013-01-06 23:01:00,
2013-01-06 17:16:00,23.4,7.9,30.22,West,265,5.8,8.7,51,0.00,,---,0.00,VWS V12.08,2013-01-06 23:16:00,
2013-01-06 17:31:00,23.0,7.6,30.22,West,260,6.3,8.7,51,0.00,,---,0.00,VWS V12.08,2013-01-06 23:31:00,
2013-01-06 17:46:00,22.6,7.7,30.22,West,266,6.3,7.6,52,0.00,,---,0.00,VWS V12.08,2013-01-06 23:46:00,
2013-01-06 18:01:00,21.7,6.4,30.22,WSW,256,3.6,8.3,51,0.00,,---,0.00,VWS V12.08,2013-01-07 00:01:00,
2013-01-06 18:16:00,21.2,6.8,30.22,WSW,254,3.6,6.3,53,0.00,,---,0.00,VWS V12.08,2013-01-07 00:16:00,
2013-01-06 18:31:00,20.5,6.9,30.25,West,274,3.6,6.7,55,0.00,,---,0.00,VWS V12.08,2013-01-07 00:31:00,
2013-01-06 18:46:00,20.3,7.5,30.25,West,267,2.7,5.8,57,0.00,,---,0.00,VWS V12.08,2013-01-07 00:46:00,
2013-01-06 19:01:00,18.1,3.5,30.25,WSW,250,3.6,5.4,52,0.00,,---,0.00,VWS V12.08,2013-01-07 01:01:00,
2013-01-06 19:16:00,17.1,4.5,30.22,WSW,240,3.6,4.5,57,0.00,,---,0.00,VWS V12.08,2013-01-07 01:16:00,
2013-01-06 19:31:00,13.5,-1.3,30.22,WSW,239,2.7,4.0,51,0.00,,---,0.00,VWS V12.08,2013-01-07 01:31:00,
2013-01-06 19:46:00,12.7,-2.0,30.22,WSW,238,0.0,3.1,51,0.00,,---,0.00,VWS V12.08,2013-01-07 01:46:00,
2013-01-06 20:01:00,14.0,3.0,30.25,WSW,256,5.8,6.3,61,0.00,,---,0.00,VWS V12.08,2013-01-07 02:01:00,
2013-01-06 20:16:00,14.0,4.1,30.25,WSW,256,5.4,6.3,64,0.00,,---,0.00,VWS V12.08,2013-01-07 02:16:00,
2013-01-06 20:31:00,12.7,3.2,30.25,WSW,240,0.0,6.3,65,0.00,,---,0.00,VWS V12.08,2013-01-07 02:31:00,
2013-01-06 20:46:00,11.7,2.2,30.25,SW,224,4.0,5.8,65,0.00,,---,0.00,VWS V12.08,2013-01-07 02:46:00,
2013-01-06 21:01:00,11.7,2.2,30.25,SW,223,2.2,4.0,65,0.00,,---,0.00,VWS V12.08,2013-01-07 03:01:00,
2013-01-06 21:16:00,10.6,1.1,30.25,SE,146,0.0,3.1,65,0.00,,---,0.00,VWS V12.08,2013-01-07 03:16:00,
2013-01-06 21:31:00,10.4,1.0,30.25,SSW,203,2.7,4.0,65,0.00,,---,0.00,VWS V12.08,2013-01-07 03:31:00,
2013-01-06 21:47:00,13.1,3.6,30.25,SW,225,4.0,5.4,65,0.00,,---,0.00,VWS V12.08,2013-01-07 03:47:00,
2013-01-06 22:01:00,12.9,3.4,30.25,SSW,207,5.8,5.8,65,0.00,,---,0.00,VWS V12.08,2013-01-07 04:01:00,
2013-01-06 22:16:00,13.8,4.2,30.25,SSW,204,6.3,7.2,65,0.00,,---,0.00,VWS V12.08,2013-01-07 04:16:00,
2013-01-06 22:31:00,14.2,7.4,30.25,SW,218,3.6,7.6,74,0.00,,---,0.00,VWS V12.08,2013-01-07 04:31:00,
2013-01-06 22:46:00,13.5,6.4,30.25,SW,224,0.0,4.0,73,0.00,,---,0.00,VWS V12.08,2013-01-07 04:46:00,
2013-01-06 23:02:00,11.3,4.3,30.25,SSW,203,4.0,4.0,73,0.00,,---,0.00,VWS V12.08,2013-01-07 05:02:00,
2013-01-06 23:16:00,10.6,3.7,30.25,SSW,200,4.0,5.4,73,0.00,,---,0.00,VWS V12.08,2013-01-07 05:16:00,
2013-01-06 23:31:00,10.8,3.8,30.25,SSW,202,4.9,5.8,73,0.00,,---,0.00,VWS V12.08,2013-01-07 05:31:00,
2013-01-06 23:46:00,10.9,4.0,30.25,SSW,207,2.2,5.8,73,0.00,,---,0.00,VWS V12.08,2013-01-07 05:46:00,